• In Belarus
  • List of Countries
  • For 7 days
  • Water Temperature
  • Satellite Maps
  • Weather Map
  • Weather Widgets
  • user-avatar
    Login

    Hourly Weather Mendoza

    Today, 28 May, Monday

    Time Temperature Precipitation Wind Pressure Humidity
    00:00 +14°C° 0 mm 3 mps 693 mmHg 49%
    01:00 +13°C° 0 mm 3 mps 693 mmHg 49%
    02:00 +13°C° 0 mm 3 mps 693 mmHg 50%
    03:00 +13°C° 0 mm 3 mps 692 mmHg 50%
    04:00 +13°C° 0 mm 3 mps 692 mmHg 51%
    05:00 +13°C° 0 mm 3 mps 693 mmHg 52%
    06:00 +13°C° 0 mm 4 mps 693 mmHg 52%
    07:00 +13°C° 0 mm 4 mps 694 mmHg 52%
    08:00 +15°C° 0 mm 4 mps 694 mmHg 47%
    09:00 +18°C° 0 mm 4 mps 695 mmHg 43%
    10:00 +20°C° 0 mm 4 mps 696 mmHg 38%
    11:00 +21°C° 0 mm 4 mps 696 mmHg 37%
    12:00 +21°C° 0 mm 4 mps 695 mmHg 36%
    13:00 +22°C° 0 mm 5 mps 695 mmHg 34%
    14:00 +22°C° 0 mm 4 mps 695 mmHg 37%
    15:00 +21°C° 0 mm 4 mps 695 mmHg 39%
    16:00 +21°C° 0 mm 4 mps 696 mmHg 42%
    17:00 +19°C° 0 mm 4 mps 696 mmHg 47%
    18:00 +18°C° 0 mm 3 mps 696 mmHg 53%
    19:00 +17°C° 0 mm 3 mps 696 mmHg 58%
    20:00 +16°C° 0 mm 3 mps 696 mmHg 60%
    21:00 +16°C° 0 mm 3 mps 696 mmHg 62%
    22:00 +14°C° 0 mm 3 mps 696 mmHg 65%
    23:00 +14°C° 0 mm 3 mps 696 mmHg 65%

    Tomorrow, 29 May, Tuesday

    Time Temperature Precipitation Wind Pressure Humidity
    00:00 +13°C° 0 mm 3 mps 696 mmHg 66%
    01:00 +14°C° 0 mm 2 mps 695 mmHg 67%
    02:00 +13°C° 0 mm 3 mps 695 mmHg 67%
    03:00 +12°C° 0 mm 3 mps 695 mmHg 68%
    04:00 +12°C° 0 mm 3 mps 694 mmHg 68%
    05:00 +12°C° 0 mm 3 mps 694 mmHg 67%
    06:00 +12°C° 0 mm 3 mps 694 mmHg 67%
    07:00 +13°C° 0 mm 2 mps 694 mmHg 66%
    08:00 +14°C° 0 mm 3 mps 695 mmHg 64%
    09:00 +17°C° 0 mm 3 mps 695 mmHg 62%
    10:00 +18°C° 0 mm 3 mps 695 mmHg 59%
    11:00 +19°C° 0 mm 3 mps 695 mmHg 56%
    12:00 +20°C° 0 mm 4 mps 695 mmHg 52%
    13:00 +21°C° 0 mm 4 mps 695 mmHg 49%
    14:00 +20°C° 0 mm 4 mps 696 mmHg 51%
    15:00 +20°C° 0 mm 4 mps 696 mmHg 54%
    16:00 +20°C° 0 mm 5 mps 696 mmHg 57%
    17:00 +17°C° 0.2 mm 5 mps 697 mmHg 63%
    18:00 +16°C° 0.2 mm 5 mps 698 mmHg 69%
    19:00 +15°C° 0.2 mm 5 mps 698 mmHg 75%
    20:00 +14°C° 0.1 mm 5 mps 699 mmHg 75%
    21:00 +14°C° 0.1 mm 5 mps 699 mmHg 74%
    22:00 +13°C° 0.1 mm 5 mps 699 mmHg 73%
    23:00 +13°C° 0.1 mm 4 mps 699 mmHg 72%

    Day after tomorrow, 30 May, Wednesday

    Time Temperature Precipitation Wind Pressure Humidity
    00:00 +12°C° 0.1 mm 4 mps 699 mmHg 72%
    01:00 +12°C° 0.1 mm 4 mps 699 mmHg 72%
    02:00 +12°C° 0.1 mm 4 mps 699 mmHg 72%
    03:00 +11°C° 0.1 mm 4 mps 699 mmHg 72%
    04:00 +11°C° 0.1 mm 4 mps 699 mmHg 73%
    05:00 +11°C° 0.1 mm 4 mps 700 mmHg 74%
    06:00 +10°C° 0.1 mm 4 mps 700 mmHg 75%
    07:00 +10°C° 0.1 mm 4 mps 700 mmHg 76%
    08:00 +10°C° 0.1 mm 4 mps 701 mmHg 76%
    09:00 +10°C° 0.1 mm 4 mps 701 mmHg 76%
    10:00 +10°C° 0.1 mm 4 mps 701 mmHg 76%
    11:00 +10°C° 0 mm 4 mps 701 mmHg 75%
    12:00 +10°C° 0 mm 4 mps 700 mmHg 74%
    13:00 +10°C° 0 mm 4 mps 700 mmHg 73%
    14:00 +10°C° 0 mm 4 mps 700 mmHg 73%
    15:00 +10°C° 0 mm 3 mps 700 mmHg 72%
    16:00 +10°C° 0 mm 3 mps 700 mmHg 72%
    17:00 +9°C° 0 mm 3 mps 700 mmHg 73%
    18:00 +9°C° 0 mm 3 mps 701 mmHg 75%
    19:00 +8°C° 0 mm 2 mps 701 mmHg 76%
    20:00 +8°C° 0 mm 3 mps 702 mmHg 76%
    21:00 +8°C° 0 mm 3 mps 702 mmHg 77%
    22:00 +7°C° 0 mm 3 mps 702 mmHg 77%
    23:00 +7°C° 0 mm 3 mps 702 mmHg 76%

    31 May, Thursday

    Time Temperature Precipitation Wind Pressure Humidity
    00:00 +7°C° 0 mm 3 mps 702 mmHg 76%
    01:00 +5°C° 0 mm 4 mps 702 mmHg 75%
    02:00 +5°C° 0 mm 4 mps 701 mmHg 74%
    03:00 +5°C° 0 mm 4 mps 701 mmHg 72%
    04:00 +5°C° 0 mm 4 mps 701 mmHg 71%
    05:00 +5°C° 0 mm 4 mps 701 mmHg 71%
    06:00 +4°C° 0 mm 4 mps 702 mmHg 71%
    07:00 +4°C° 0 mm 4 mps 702 mmHg 71%
    08:00 +5°C° 0 mm 4 mps 702 mmHg 69%
    09:00 +6°C° 0 mm 5 mps 702 mmHg 67%
    10:00 +6°C° 0 mm 5 mps 702 mmHg 64%
    11:00 +7°C° 0 mm 5 mps 701 mmHg 63%
    12:00 +7°C° 0 mm 5 mps 701 mmHg 63%
    13:00 +8°C° 0 mm 5 mps 701 mmHg 62%
    14:00 +8°C° 0 mm 5 mps 701 mmHg 65%
    15:00 +7°C° 0 mm 4 mps 701 mmHg 67%
    16:00 +7°C° 0 mm 4 mps 701 mmHg 70%
    17:00 +7°C° 0 mm 4 mps 702 mmHg 72%
    18:00 +7°C° 0 mm 3 mps 702 mmHg 74%
    19:00 +7°C° 0 mm 3 mps 703 mmHg 76%
    20:00 +7°C° 0 mm 3 mps 703 mmHg 77%
    21:00 +5°C° 0 mm 3 mps 703 mmHg 77%
    22:00 +6°C° 0 mm 2 mps 703 mmHg 78%
    23:00 +6°C° 0 mm 2 mps 703 mmHg 77%

    1 June, Friday

    Time Temperature Precipitation Wind Pressure Humidity
    00:00 +5°C° 0 mm 2 mps 703 mmHg 77%
    01:00 +5°C° 0 mm 2 mps 703 mmHg 76%
    02:00 +5°C° 0 mm 2 mps 703 mmHg 76%
    03:00 +4°C° 0 mm 2 mps 702 mmHg 75%
    04:00 +4°C° 0 mm 2 mps 702 mmHg 75%
    05:00 +4°C° 0 mm 2 mps 702 mmHg 74%
    06:00 +4°C° 0 mm 2 mps 702 mmHg 73%
    07:00 +4°C° 0 mm 2 mps 702 mmHg 71%
    08:00 +5°C° 0 mm 2 mps 702 mmHg 66%
    09:00 +7°C° 0 mm 2 mps 702 mmHg 60%
    10:00 +9°C° 0 mm 1 mps 702 mmHg 55%
    11:00 +9°C° 0 mm 2 mps 701 mmHg 53%
    12:00 +10°C° 0 mm 2 mps 700 mmHg 51%
    13:00 +12°C° 0 mm 2 mps 699 mmHg 49%
    14:00 +10°C° 0 mm 2 mps 699 mmHg 50%
    15:00 +10°C° 0 mm 2 mps 699 mmHg 51%
    16:00 +10°C° 0 mm 2 mps 699 mmHg 52%
    17:00 +9°C° 0 mm 2 mps 699 mmHg 54%
    18:00 +8°C° 0 mm 2 mps 700 mmHg 57%
    19:00 +8°C° 0 mm 2 mps 700 mmHg 60%
    20:00 +7°C° 0 mm 2 mps 700 mmHg 61%
    21:00 +7°C° 0 mm 2 mps 700 mmHg 61%
    22:00 +7°C° 0 mm 2 mps 700 mmHg 62%
    23:00 +6°C° 0 mm 2 mps 699 mmHg 63%

    2 June, Saturday

    Time Temperature Precipitation Wind Pressure Humidity
    00:00 +6°C° 0 mm 2 mps 699 mmHg 64%
    01:00 +6°C° 0 mm 2 mps 699 mmHg 65%
    02:00 +6°C° 0 mm 2 mps 698 mmHg 66%
    03:00 +6°C° 0 mm 2 mps 698 mmHg 68%
    04:00 +5°C° 0 mm 2 mps 698 mmHg 69%
    05:00 +5°C° 0 mm 2 mps 698 mmHg 69%
    06:00 +5°C° 0 mm 2 mps 698 mmHg 69%
    07:00 +5°C° 0 mm 2 mps 699 mmHg 70%
    08:00 +7°C° 0 mm 2 mps 699 mmHg 65%
    09:00 +8°C° 0 mm 2 mps 699 mmHg 61%
    10:00 +10°C° 0 mm 2 mps 699 mmHg 56%
    11:00 +10°C° 0 mm 2 mps 698 mmHg 55%
    12:00 +12°C° 0 mm 2 mps 698 mmHg 53%
    13:00 +13°C° 0 mm 2 mps 697 mmHg 52%
    14:00 +13°C° 0 mm 2 mps 697 mmHg 53%
    15:00 +12°C° 0 mm 2 mps 697 mmHg 54%
    16:00 +12°C° 0 mm 2 mps 697 mmHg 56%
    17:00 +10°C° 0 mm 2 mps 698 mmHg 59%
    18:00 +10°C° 0 mm 2 mps 698 mmHg 62%
    19:00 +9°C° 0 mm 3 mps 699 mmHg 65%
    20:00 +9°C° 0 mm 3 mps 699 mmHg 66%
    21:00 +9°C° 0 mm 2 mps 699 mmHg 68%
    22:00 +9°C° 0 mm 2 mps 699 mmHg 69%
    23:00 +8°C° 0 mm 2 mps 698 mmHg 71%
    Show more